This is the latest recevied weather packets stored in our database for station/object KG7FOQ-13. If no packets are shown the sender has not sent any weather packets the latest 10 day(s).
| Time | Temp. | Humidity | Pressure | Rain* | Wind** | Luminosity | Snow |
|---|---|---|---|---|---|---|---|
| 1778102791 | 18.89° C | 31% | 1018.2 hPa | 0 mm | - | - | - |
| 1778102490 | 18.89° C | 32% | 1018.4 hPa | 0 mm | - | - | - |
| 1778102190 | 18.89° C | 32% | 1018.4 hPa | 0 mm | - | - | - |
| 1778101589 | 18.89° C | 31% | 1018.5 hPa | 0 mm | - | - | - |
| 1778101288 | 18.89° C | 32% | 1018.5 hPa | 0 mm | - | - | - |
| 1778100987 | 18.33° C | 33% | 1018.5 hPa | 0 mm | - | - | - |
| 1778100687 | 18.33° C | 31% | 1018.7 hPa | 0 mm | - | - | - |
| 1778100386 | 18.33° C | 31% | 1018.8 hPa | 0 mm | - | - | - |
| 1778100086 | 18.33° C | 31% | 1018.9 hPa | 0 mm | - | - | - |
| 1778099785 | 17.78° C | 31% | 1018.9 hPa | 0 mm | - | - | - |
| 1778099485 | 18.33° C | 32% | 1018.8 hPa | 0 mm | - | - | - |
| 1778099184 | 17.78° C | 32% | 1018.9 hPa | 0 mm | - | - | - |
| 1778098885 | 17.78° C | 31% | 1018.9 hPa | 0 mm | - | - | - |
| 1778098583 | 17.78° C | 33% | 1018.9 hPa | 0 mm | - | - | - |
| 1778098281 | 17.78° C | 31% | 1019 hPa | 0 mm | - | - | - |
| 1778097980 | 17.78° C | 33% | 1019 hPa | 0 mm | - | - | - |
| 1778097713 | 17.22° C | 35% | 1019.2 hPa | 0 mm | - | - | - |
| 1778097680 | 17.22° C | 35% | 1019.2 hPa | 0 mm | - | - | - |
| 1778097379 | 16.67° C | 32% | 1019.3 hPa | 0 mm | - | - | - |
| 1778097078 | 17.22° C | 32% | 1019.3 hPa | 0 mm | - | - | - |
| 1778096777 | 16.67° C | 32% | 1019.4 hPa | 0 mm | - | - | - |
| 1778096477 | 16.67° C | 33% | 1019.3 hPa | 0 mm | - | - | - |
| 1778096176 | 16.67° C | 33% | 1019.4 hPa | 0 mm | - | - | - |
| 1778095876 | 16.67° C | 36% | 1019.4 hPa | 0 mm | - | - | - |
| 1778095623 | 16.67° C | 34% | 1019.5 hPa | 0 mm | - | - | - |
* Rain latest hour (hover to see other rain measurements)
** Current wind speed in m/s (hover to see current wind gust speed)